• în Republica Moldova
  • Lista ţărilor
  • Pe 7 zile
  • Temperatura apei
  • Hartă satelitară
  • Meteo pe hartă
  • Widget-uri
  • user-avatar
    Intrare

    Meteo pe oră la Kaprun

    Astăzi, 23 Aprilie, Luni

    Timp Temperatura Precipitaţii Vânt Presiune Umiditate
    00:00 +5°C° 0,3 mm 1 m/s 598 mmHg 88%
    01:00 +5°C° 0,3 mm 1 m/s 598 mmHg 88%
    02:00 +5°C° 0,1 mm 1 m/s 598 mmHg 88%
    03:00 +5°C° 0,1 mm 1 m/s 597 mmHg 87%
    04:00 +4°C° 0,1 mm 1 m/s 597 mmHg 87%
    05:00 +6°C° 0 mm 1 m/s 598 mmHg 84%
    06:00 +7°C° 0 mm 1 m/s 598 mmHg 81%
    07:00 +8°C° 0 mm 1 m/s 599 mmHg 78%
    08:00 +10°C° 0,2 mm 1 m/s 600 mmHg 70%
    09:00 +12°C° 0,2 mm 1 m/s 601 mmHg 62%
    10:00 +14°C° 0,2 mm 1 m/s 601 mmHg 54%
    11:00 +14°C° 0,7 mm 1 m/s 601 mmHg 53%
    12:00 +14°C° 0,7 mm 1 m/s 601 mmHg 53%
    13:00 +15°C° 0,7 mm 1 m/s 601 mmHg 52%
    14:00 +13°C° 1,4 mm 1 m/s 600 mmHg 60%
    15:00 +12°C° 1,4 mm 1 m/s 600 mmHg 67%
    16:00 +11°C° 1,4 mm 1 m/s 599 mmHg 75%
    17:00 +10°C° 1,3 mm 1 m/s 599 mmHg 81%
    18:00 +8°C° 1,3 mm 1 m/s 598 mmHg 87%
    19:00 +7°C° 1,3 mm 1 m/s 598 mmHg 92%
    20:00 +7°C° 1 mm 1 m/s 598 mmHg 94%
    21:00 +5°C° 1 mm 2 m/s 598 mmHg 95%
    22:00 +5°C° 1 mm 2 m/s 598 mmHg 96%
    23:00 +5°C° 0,7 mm 2 m/s 598 mmHg 95%

    Mâine, 24 Aprilie, Marţi

    Timp Temperatura Precipitaţii Vânt Presiune Umiditate
    00:00 +6°C° 0,7 mm 1 m/s 598 mmHg 95%
    01:00 +5°C° 0,7 mm 1 m/s 598 mmHg 95%
    02:00 +5°C° 0,3 mm 1 m/s 598 mmHg 95%
    03:00 +5°C° 0,3 mm 1 m/s 598 mmHg 95%
    04:00 +4°C° 0,3 mm 1 m/s 598 mmHg 95%
    05:00 +5°C° 0,2 mm 1 m/s 598 mmHg 94%
    06:00 +5°C° 0,2 mm 1 m/s 598 mmHg 93%
    07:00 +5°C° 0,2 mm 1 m/s 599 mmHg 92%
    08:00 +7°C° 0,2 mm 1 m/s 600 mmHg 86%
    09:00 +8°C° 0,2 mm 1 m/s 600 mmHg 80%
    10:00 +9°C° 0,2 mm 0 m/s 601 mmHg 75%
    11:00 +10°C° 0,2 mm 0 m/s 601 mmHg 69%
    12:00 +11°C° 0,2 mm 0 m/s 602 mmHg 63%
    13:00 +14°C° 0,2 mm 1 m/s 602 mmHg 57%
    14:00 +13°C° 0,5 mm 1 m/s 601 mmHg 59%
    15:00 +13°C° 0,5 mm 1 m/s 601 mmHg 61%
    16:00 +12°C° 0,5 mm 1 m/s 600 mmHg 62%
    17:00 +11°C° 0,4 mm 1 m/s 600 mmHg 71%
    18:00 +9°C° 0,4 mm 1 m/s 599 mmHg 80%
    19:00 +6°C° 0,4 mm 0 m/s 598 mmHg 90%
    20:00 +6°C° 0,1 mm 0 m/s 598 mmHg 91%
    21:00 +5°C° 0,1 mm 0 m/s 598 mmHg 93%
    22:00 +4°C° 0,1 mm 0 m/s 598 mmHg 95%
    23:00 +5°C° 0 mm 1 m/s 598 mmHg 94%

    Poimâine, 25 Aprilie, Miercuri

    Timp Temperatura Precipitaţii Vânt Presiune Umiditate
    00:00 +4°C° 0 mm 1 m/s 597 mmHg 94%
    01:00 +4°C° 0 mm 1 m/s 597 mmHg 94%
    02:00 +4°C° 0 mm 1 m/s 597 mmHg 94%
    03:00 +4°C° 0 mm 1 m/s 597 mmHg 94%
    04:00 +3°C° 0 mm 1 m/s 597 mmHg 93%
    05:00 +5°C° 0 mm 1 m/s 597 mmHg 90%
    06:00 +6°C° 0 mm 1 m/s 598 mmHg 86%
    07:00 +6°C° 0 mm 0 m/s 598 mmHg 83%
    08:00 +9°C° 0 mm 1 m/s 599 mmHg 75%
    09:00 +11°C° 0 mm 1 m/s 600 mmHg 66%
    10:00 +13°C° 0 mm 1 m/s 601 mmHg 58%
    11:00 +13°C° 0,1 mm 1 m/s 601 mmHg 58%
    12:00 +13°C° 0,1 mm 1 m/s 600 mmHg 57%
    13:00 +13°C° 0,1 mm 1 m/s 600 mmHg 57%
    14:00 +13°C° 0,5 mm 1 m/s 600 mmHg 60%
    15:00 +13°C° 0,5 mm 1 m/s 599 mmHg 63%
    16:00 +12°C° 0,5 mm 1 m/s 599 mmHg 66%
    17:00 +11°C° 0,5 mm 1 m/s 599 mmHg 73%
    18:00 +9°C° 0,5 mm 1 m/s 598 mmHg 81%
    19:00 +8°C° 0,5 mm 1 m/s 598 mmHg 88%
    20:00 +7°C° 0,2 mm 1 m/s 598 mmHg 90%
    21:00 +7°C° 0,2 mm 1 m/s 598 mmHg 92%
    22:00 +6°C° 0,2 mm 1 m/s 598 mmHg 93%
    23:00 +6°C° 0,1 mm 1 m/s 598 mmHg 94%

    26 Aprilie, Joi

    Timp Temperatura Precipitaţii Vânt Presiune Umiditate
    00:00 +6°C° 0,1 mm 1 m/s 598 mmHg 96%
    01:00 +5°C° 0,1 mm 1 m/s 598 mmHg 97%
    02:00 +5°C° 0,1 mm 1 m/s 598 mmHg 97%
    03:00 +4°C° 0,1 mm 0 m/s 597 mmHg 97%
    04:00 +4°C° 0,1 mm 0 m/s 597 mmHg 97%
    05:00 +4°C° 0 mm 0 m/s 597 mmHg 95%
    06:00 +6°C° 0 mm 1 m/s 597 mmHg 94%
    07:00 +6°C° 0 mm 1 m/s 597 mmHg 92%
    08:00 +7°C° 0,2 mm 1 m/s 598 mmHg 87%
    09:00 +8°C° 0,2 mm 1 m/s 598 mmHg 82%
    10:00 +9°C° 0,2 mm 2 m/s 599 mmHg 78%
    11:00 +8°C° 0,7 mm 2 m/s 598 mmHg 80%
    12:00 +8°C° 0,7 mm 2 m/s 598 mmHg 82%
    13:00 +8°C° 0,7 mm 2 m/s 597 mmHg 84%
    14:00 +7°C° 1,5 mm 2 m/s 597 mmHg 87%
    15:00 +7°C° 1,5 mm 2 m/s 596 mmHg 90%
    16:00 +7°C° 1,5 mm 1 m/s 596 mmHg 93%
    17:00 +7°C° 2,8 mm 1 m/s 596 mmHg 95%
    18:00 +6°C° 2,8 mm 1 m/s 596 mmHg 96%
    19:00 +6°C° 2,8 mm 1 m/s 596 mmHg 97%
    20:00 +5°C° 1,2 mm 1 m/s 596 mmHg 97%
    21:00 +5°C° 1,2 mm 1 m/s 596 mmHg 97%
    22:00 +5°C° 1,2 mm 1 m/s 596 mmHg 97%
    23:00 +4°C° 0,6 mm 1 m/s 596 mmHg 97%

    27 Aprilie, Vineri

    Timp Temperatura Precipitaţii Vânt Presiune Umiditate
    00:00 +4°C° 0,6 mm 1 m/s 596 mmHg 97%
    01:00 +4°C° 0,6 mm 1 m/s 596 mmHg 98%
    02:00 +4°C° 0,2 mm 1 m/s 596 mmHg 97%
    03:00 +3°C° 0,2 mm 1 m/s 596 mmHg 97%
    04:00 +3°C° 0,2 mm 1 m/s 596 mmHg 97%
    05:00 +3°C° 0,1 mm 1 m/s 596 mmHg 96%
    06:00 +4°C° 0,1 mm 1 m/s 596 mmHg 95%
    07:00 +3°C° 0,1 mm 0 m/s 596 mmHg 94%
    08:00 +5°C° 0,1 mm 1 m/s 596 mmHg 91%
    09:00 +6°C° 0,1 mm 1 m/s 597 mmHg 87%
    10:00 +6°C° 0,1 mm 2 m/s 597 mmHg 83%
    11:00 +6°C° 0,2 mm 2 m/s 597 mmHg 82%
    12:00 +6°C° 0,2 mm 2 m/s 597 mmHg 81%
    13:00 +7°C° 0,2 mm 2 m/s 596 mmHg 80%
    14:00 +7°C° 0,1 mm 2 m/s 596 mmHg 79%
    15:00 +7°C° 0,1 mm 2 m/s 596 mmHg 78%
    16:00 +7°C° 0,1 mm 2 m/s 596 mmHg 78%
    17:00 +7°C° 0 mm 2 m/s 596 mmHg 82%
    18:00 +6°C° 0 mm 2 m/s 595 mmHg 87%
    19:00 +5°C° 0 mm 2 m/s 595 mmHg 91%
    20:00 +4°C° 0 mm 2 m/s 595 mmHg 93%
    21:00 +3°C° 0 mm 2 m/s 595 mmHg 95%
    22:00 +3°C° 0 mm 2 m/s 595 mmHg 97%
    23:00 +2°C° 0 mm 2 m/s 594 mmHg 96%

    28 Aprilie, Sâmbătă

    Timp Temperatura Precipitaţii Vânt Presiune Umiditate
    00:00 +2°C° 0 mm 2 m/s 594 mmHg 96%
    01:00 +2°C° 0 mm 2 m/s 594 mmHg 95%
    02:00 +2°C° 0 mm 2 m/s 594 mmHg 95%
    03:00 +2°C° 0 mm 2 m/s 593 mmHg 95%
    04:00 +2°C° 0 mm 2 m/s 593 mmHg 95%
    05:00 +3°C° 0 mm 2 m/s 593 mmHg 92%
    06:00 +4°C° 0 mm 2 m/s 594 mmHg 89%
    07:00 +5°C° 0 mm 2 m/s 594 mmHg 86%
    08:00 +7°C° 0 mm 2 m/s 595 mmHg 78%
    09:00 +9°C° 0 mm 2 m/s 595 mmHg 69%
    10:00 +11°C° 0 mm 3 m/s 596 mmHg 60%
    11:00 +11°C° 0,1 mm 3 m/s 596 mmHg 59%
    12:00 +12°C° 0,1 mm 3 m/s 596 mmHg 58%
    13:00 +13°C° 0,1 mm 3 m/s 596 mmHg 56%
    14:00 +12°C° 0,2 mm 3 m/s 595 mmHg 58%
    15:00 +12°C° 0,2 mm 3 m/s 595 mmHg 59%
    16:00 +12°C° 0,2 mm 3 m/s 594 mmHg 61%
    17:00 +10°C° 0,1 mm 3 m/s 594 mmHg 68%
    18:00 +8°C° 0,1 mm 3 m/s 593 mmHg 76%
    19:00 +7°C° 0,1 mm 3 m/s 592 mmHg 83%
    20:00 +5°C° 0 mm 3 m/s 592 mmHg 85%
    21:00 +4°C° 0 mm 3 m/s 592 mmHg 88%
    22:00 +3°C° 0 mm 3 m/s 592 mmHg 90%
    23:00 +3°C° 0 mm 3 m/s 591 mmHg 89%
    Arată mai mult